RH
4 3 7 10 18 18 11 10 8 6 7 5 5 4 5 4 4 6 3 3 3 2 1 1 1 1 1 1 1 1 1 1 1 2 16 29 46 74 95 88 78 76 71 75 77 89 99 79 65
4 4 6 17 20 20 18 8 7 6 6 5 4 4 4 4 3 3 3 2 2 1 1 1 1 1 1 2 2 2 2 2 2 1 2 13 32 56 85 91 80 80 74 78 78 92 99 84 76
4 5 10 12 14 16 9 6 6 5 5 4 4 4 4 3 3 3 2 2 1 1 1 1 1 1 1 2 2 3 3 3 2 2 2 1 9 35 60 77 87 81 79 78 79 90 100 93 83
5 6 10 6 5 6 5 5 5 5 4 4 4 4 3 3 3 3 2 2 1 1 1 1 1 1 2 2 2 3 3 3 2 2 1 1 1 5 24 64 78 84 81 84 87 84 91 98 87
7 8 8 6 5 5 5 5 5 5 4 4 4 4 4 4 3 3 3 2 1 1 1 1 1 1 1 2 2 2 3 3 3 2 1 1 1 1 3 24 67 87 83 84 90 89 90 99 92
7 8 8 9 5 5 5 5 5 5 5 5 4 4 4 4 4 4 3 2 2 1 1 1 1 1 1 2 2 2 2 3 3 4 3 2 2 2 1 2 44 72 86 88 90 96 94 98 94
7 7 6 6 5 5 5 5 5 5 5 5 5 5 5 5 5 5 4 4 3 2 2 1 1 1 1 1 2 2 2 3 3 3 3 4 4 3 2 2 2 30 79 95 91 96 97 95 90
7 6 5 5 5 5 5 6 6 6 6 6 6 5 6 7 7 7 6 6 5 4 4 3 2 2 1 1 1 2 2 2 2 3 4 3 4 4 4 2 2 2 40 76 98 88 100 92 95
7 6 6 6 6 6 6 6 6 7 7 7 7 6 7 8 9 10 10 10 8 6 5 4 4 3 2 2 2 2 2 2 2 4 5 4 4 4 4 3 2 1 2 35 93 94 90 100 99
7 7 6 6 7 7 7 7 8 8 8 9 8 7 8 9 11 14 15 15 13 11 9 7 6 5 4 3 3 2 2 2 2 3 5 5 5 4 4 3 3 1 1 8 88 100 100 93 100
8 7 7 8 8 8 9 11 13 13 9 9 10 8 8 9 13 19 20 20 20 18 17 14 11 8 6 5 4 4 3 2 2 2 2 4 6 6 4 4 4 3 2 8 36 100 100 100 96
8 8 8 9 10 10 13 15 17 16 11 10 11 8 8 9 15 23 25 26 27 26 25 22 20 15 10 8 6 5 4 3 2 1 1 1 6 7 6 4 4 4 3 8 38 72 100 100 92
9 10 10 11 13 14 16 17 20 19 14 13 11 10 9 9 15 25 29 32 37 41 38 33 29 26 22 15 10 8 7 5 3 2 1 1 1 6 8 6 5 5 6 7 41 62 100 100 88
11 13 14 12 14 17 20 19 21 21 24 25 11 11 10 10 14 28 33 36 42 46 47 48 48 42 38 34 23 14 10 7 5 3 2 1 1 1 6 8 6 5 6 6 17 56 89 100 94
14 17 18 20 21 22 21 18 22 24 25 27 25 14 12 12 17 37 43 45 48 51 51 48 48 50 54 49 45 36 20 11 7 4 2 1 1 1 1 6 9 5 6 6 8 40 89 98 100
21 20 22 21 18 18 19 20 23 23 24 27 28 18 13 13 29 45 50 48 50 53 54 53 53 52 55 57 56 54 52 29 12 7 3 1 1 1 1 1 8 8 6 7 6 14 45 91 100
24 24 21 23 25 25 24 23 25 24 22 24 22 18 15 16 36 48 50 45 47 52 56 58 55 54 53 55 58 58 58 56 22 9 5 2 1 1 1 1 3 9 7 7 6 8 25 54 95
24 24 27 28 27 27 27 22 24 24 22 24 16 16 16 22 43 46 46 41 44 52 53 49 53 52 52 54 56 58 59 58 50 16 8 4 1 1 1 1 1 8 7 7 8 6 14 29 45
28 31 32 31 29 27 26 24 24 24 22 24 24 20 17 31 40 43 40 37 42 54 51 44 42 42 40 43 47 55 60 62 61 42 13 6 2 1 1 2 1 7 9 7 8 7 8 15 30
32 33 35 35 32 30 26 24 27 28 28 28 28 20 23 30 33 35 35 37 44 64 62 63 53 38 31 38 40 45 61 65 66 63 32 9 4 1 1 2 2 3 9 8 7 9 6 9 18
35 37 42 41 32 30 27 27 28 29 31 31 28 21 22 26 32 37 39 56 64 68 69 70 48 36 38 43 44 42 49 61 72 73 58 19 6 2 1 1 4 2 8 9 8 8 8 6 10
41 44 45 40 36 36 33 32 30 31 34 33 23 19 32 48 55 60 64 63 54 65 74 55 41 40 44 47 49 53 54 52 59 70 75 51 13 4 1 1 4 4 3 9 9 8 8 8 8
45 49 44 40 42 48 36 38 31 33 37 32 27 40 56 57 61 64 65 62 65 70 52 44 43 48 54 59 65 66 66 64 62 72 70 67 56 8 2 1 3 11 3 5 9 9 8 9 9
52 49 43 49 61 59 41 39 35 37 39 29 40 57 56 58 66 69 71 65 64 63 48 41 41 38 37 43 54 60 62 65 65 74 77 74 50 32 3 1 2 13 14 3 6 8 8 8 10
60 50 43 58 71 68 57 44 35 40 38 31 38 56 55 57 60 62 62 56 61 59 44 37 32 26 22 23 31 45 60 67 69 74 79 75 53 19 6 1 2 14 26 15 4 6 8 9 9
59 55 46 61 76 71 44 46 41 42 42 39 45 60 58 59 62 60 57 52 52 37 36 31 23 16 19 26 25 33 55 72 72 74 78 77 71 26 4 2 1 8 25 31 22 4 6 8 10
64 58 63 49 58 81 52 43 41 46 45 48 53 61 56 60 60 58 48 54 35 36 33 20 16 15 20 36 40 43 58 68 69 75 78 79 74 34 2 2 1 4 28 32 31 22 4 6 10
74 76 61 58 68 83 60 52 40 42 43 46 53 57 56 59 58 55 51 43 36 35 23 22 25 23 20 16 33 51 62 67 68 72 77 79 71 37 5 2 1 2 31 42 36 35 19 4 8
79 82 64 63 65 88 94 60 45 50 48 51 57 54 59 59 58 50 39 36 38 28 26 27 22 21 22 17 18 45 62 68 69 74 79 78 77 62 20 2 1 2 31 46 42 39 37 11 6
69 62 64 70 77 67 75 72 52 60 56 54 55 61 63 61 52 37 36 40 35 30 31 24 17 16 16 15 16 39 62 66 69 74 76 73 50 17 2 2 2 2 22 43 46 44 42 40 12
Wind_Speed
4 8 13 8 3 3 6 4 4 3 1 4 4 5 3 3 4 3 10 14 14 15 19 20 21 22 21 17 15 13 15 16 17 25 28 31 30 31 27 25 23 23 22 20 18 18 18 16 14
6 10 9 7 4 4 4 4 3 3 4 5 7 7 5 7 8 9 14 14 13 14 17 19 20 20 19 16 16 15 14 16 16 17 24 30 32 32 33 29 27 25 24 22 21 19 18 18 15
7 8 6 4 3 3 3 3 3 3 4 5 7 5 9 11 12 14 15 15 15 16 18 19 19 18 18 17 17 17 18 17 18 17 18 24 32 32 34 34 31 29 27 24 25 21 19 23 17
5 4 3 2 3 3 3 3 2 2 4 6 7 6 11 13 14 16 17 16 17 18 19 20 21 18 17 17 18 19 21 19 18 19 17 20 24 31 32 34 34 34 31 27 27 26 23 24 23
2 2 2 1 1 2 2 2 3 4 5 7 8 9 11 12 14 16 17 18 18 19 19 20 20 21 20 19 19 19 21 23 21 19 20 19 20 21 30 32 34 34 35 32 28 29 32 23 24
4 3 3 1 0 1 1 3 5 6 6 8 9 10 12 13 15 16 17 17 17 17 17 19 20 20 21 21 20 21 23 24 25 25 23 22 23 26 22 29 34 38 39 35 33 32 32 28 26
5 5 4 2 1 2 3 4 6 8 9 9 10 12 10 13 14 15 16 18 19 20 20 20 20 20 21 23 21 23 24 25 27 28 29 27 26 25 25 24 29 37 45 38 37 34 35 34 30
5 5 4 2 2 2 5 6 7 9 11 12 11 9 12 13 15 16 17 17 18 19 20 20 21 21 21 21 23 24 23 24 26 29 30 30 30 30 30 29 29 29 39 46 41 41 38 39 34
5 4 3 3 3 4 6 7 9 11 12 13 13 12 13 14 15 17 18 20 19 18 19 20 21 21 21 21 21 24 26 25 25 27 29 31 32 32 31 33 34 37 38 42 47 44 43 41 41
5 4 3 3 4 5 7 9 12 13 14 14 13 12 11 12 15 18 19 19 19 19 19 18 19 19 20 21 21 22 23 25 25 27 29 31 32 32 32 33 35 37 39 43 50 50 38 44 43
5 4 4 4 5 6 8 11 14 17 15 14 14 12 10 12 15 18 19 20 21 21 20 21 21 21 20 20 22 22 22 23 25 27 29 31 32 32 34 32 33 36 38 46 50 46 45 42 39
4 3 3 4 6 7 10 13 15 15 16 14 13 11 10 10 13 17 20 21 22 22 23 22 22 23 23 22 22 24 23 25 26 26 28 28 32 34 33 33 31 32 33 43 43 60 40 38 41
2 3 4 5 7 11 12 16 18 14 11 13 13 11 9 9 12 17 19 20 22 24 24 24 25 25 26 26 26 25 25 25 27 28 29 29 30 33 35 34 33 29 29 39 41 59 45 41 36
2 4 6 7 11 12 16 16 17 12 14 12 10 10 9 9 11 15 18 21 24 26 28 29 28 26 26 27 27 26 26 26 27 28 29 30 30 30 34 34 34 30 27 32 37 46 59 23 48
4 5 6 7 15 15 17 13 14 11 16 19 12 11 10 8 9 14 18 22 25 28 29 30 29 28 25 26 26 27 27 26 26 28 30 31 30 30 29 33 32 29 28 27 33 35 66 29 30
6 5 12 15 12 18 21 13 18 17 19 14 12 13 10 6 6 11 16 22 28 29 29 30 30 29 27 26 26 26 27 27 26 26 28 31 31 28 26 29 30 27 27 25 27 28 32 61 35
8 10 14 17 22 20 20 22 17 15 15 12 11 12 10 4 5 10 16 23 28 31 30 31 32 33 33 30 27 26 27 26 25 24 25 28 30 28 23 25 27 26 26 25 25 26 32 36 49
11 15 19 22 25 19 24 18 12 7 10 7 7 10 9 7 6 11 16 24 29 32 31 32 32 34 36 35 32 29 27 27 26 25 25 26 27 27 23 21 25 26 26 26 25 25 30 29 40
13 17 21 24 20 30 24 16 2 4 7 6 2 6 10 8 7 13 18 27 31 33 29 34 35 37 40 40 37 32 30 27 26 27 27 26 28 27 23 19 24 28 27 27 25 25 28 29 30
14 19 22 16 27 28 19 8 2 5 5 7 8 4 7 6 11 18 23 29 33 34 32 37 42 43 43 42 41 38 34 32 28 28 28 28 28 29 26 21 22 29 29 28 27 25 26 30 33
17 17 24 28 28 23 12 2 5 7 5 7 4 4 5 10 15 21 26 31 33 35 37 41 42 43 43 44 43 43 41 38 34 31 28 29 29 31 30 24 22 27 32 31 28 27 27 29 33
20 19 28 25 25 7 11 3 3 4 3 4 1 3 6 10 15 20 24 29 39 38 36 40 43 43 42 44 43 43 43 43 39 36 31 30 29 29 32 29 25 26 33 33 32 30 29 30 32
15 27 23 26 13 9 2 3 5 6 4 1 3 3 3 8 15 19 24 36 38 37 40 40 40 39 40 42 42 44 44 41 40 34 30 27 30 31 31 31 29 26 32 36 36 34 32 33 34
20 20 21 10 6 2 1 3 7 6 4 7 8 8 5 12 16 22 30 37 40 39 41 43 44 43 44 43 44 46 48 46 42 36 31 27 25 25 30 33 30 29 29 35 37 38 36 36 36
25 16 6 4 3 3 4 12 6 9 8 16 18 17 12 18 23 31 36 40 39 41 44 44 44 45 46 45 43 44 44 46 45 40 35 30 28 26 25 28 32 29 30 33 36 39 39 38 39
12 10 2 4 2 5 18 8 4 13 17 21 20 14 15 19 29 36 38 40 41 45 44 43 45 45 45 45 44 43 43 44 43 41 37 32 30 29 26 25 30 31 32 34 35 39 42 42 41
9 6 9 6 8 2 5 7 9 15 21 22 21 17 22 24 37 38 41 38 44 41 42 43 43 44 46 47 46 44 43 43 43 40 36 33 31 30 29 26 25 31 31 35 36 37 42 45 44
16 11 5 3 2 5 6 9 18 18 23 24 21 23 24 35 39 40 38 43 40 40 40 41 44 46 47 48 48 46 44 44 43 41 36 34 31 29 29 28 24 27 30 31 36 38 39 45 47
19 13 4 5 7 4 3 7 11 17 16 20 23 23 38 40 37 38 43 38 38 38 40 43 45 46 47 47 47 46 45 43 41 38 35 33 31 31 30 29 26 23 29 29 32 36 39 43 47
7 7 8 7 6 10 5 22 20 25 24 27 18 38 42 37 35 42 38 38 39 41 42 45 47 48 47 47 46 44 43 40 37 35 32 31 30 31 30 28 28 24 27 31 31 33 38 41 44
Wind_Direction
120 141 151 159 176 159 134 149 133 94 87 23 14 25 19 64 21 263 313 326 335 325 320 319 317 316 313 313 316 314 310 307 290 271 265 266 263 261 259 249 240 242 246 242 236 229 226 195 204
141 156 169 186 209 175 166 130 80 38 15 10 1 7 21 2 353 337 329 328 326 320 311 310 316 318 318 320 316 318 314 311 310 302 275 263 264 257 258 255 241 240 238 240 233 231 236 201 209
156 168 177 207 201 182 123 105 72 17 358 5 358 4 6 352 350 334 328 325 321 321 317 319 322 323 318 315 313 316 315 315 311 305 296 277 263 265 256 256 250 236 238 233 233 227 229 210 209
157 178 200 149 127 108 95 55 41 1 352 344 353 7 346 350 337 333 328 326 325 326 323 325 322 321 315 310 306 308 312 315 313 306 303 291 282 261 264 256 252 245 234 233 232 224 225 216 205
189 220 219 177 81 102 69 6 340 345 340 333 343 346 354 349 332 331 330 331 328 325 321 323 321 320 315 308 305 306 308 310 311 304 298 293 289 284 262 260 253 247 233 232 230 229 225 222 208
242 263 269 218 26 25 322 328 326 319 329 321 323 337 349 337 333 330 329 327 324 323 318 318 320 318 311 307 307 309 308 308 306 304 299 293 289 284 282 257 251 246 240 230 231 230 228 229 210
245 258 266 276 329 286 275 305 304 314 318 311 320 333 334 331 326 328 331 332 332 331 328 324 320 317 314 309 310 312 310 310 307 303 299 294 291 288 283 271 259 255 243 241 230 230 230 224 214
245 255 261 280 309 294 282 295 311 312 306 311 320 320 329 329 332 333 333 335 338 334 329 327 324 321 317 315 318 314 309 309 305 302 300 299 293 293 287 272 275 259 246 245 237 230 230 226 214
248 250 264 281 297 302 301 307 311 304 305 311 314 315 325 332 333 335 339 340 337 334 334 333 329 326 322 320 320 313 311 310 306 301 298 296 294 292 294 291 284 268 248 241 240 230 230 219 215
258 267 264 275 293 313 320 314 307 303 298 303 311 306 313 325 334 341 344 338 336 339 338 333 329 328 327 322 317 311 311 311 308 303 296 291 290 290 292 297 299 278 249 235 233 234 227 231 223
261 263 271 296 309 314 316 310 313 307 295 297 310 294 301 319 338 348 346 344 346 345 342 337 334 332 330 324 319 317 315 313 311 307 300 289 283 283 287 292 301 284 256 232 232 226 223 232 238
259 257 284 304 314 309 314 315 315 317 296 293 300 283 297 321 343 350 352 355 355 354 350 347 341 336 334 328 323 323 322 319 314 309 303 292 280 275 275 280 288 290 262 242 236 230 225 231 229
256 275 286 294 320 303 307 306 316 315 311 300 290 282 292 312 339 346 349 353 355 355 354 350 347 343 336 330 328 324 322 321 318 314 308 301 288 274 268 268 275 285 266 251 241 229 233 214 228
279 309 306 297 309 303 306 302 302 302 312 320 273 278 281 298 332 341 344 350 351 351 353 350 347 343 338 333 327 324 322 321 318 316 312 305 298 285 268 264 266 272 271 253 250 232 222 213 225
321 315 321 320 316 309 310 317 307 298 303 305 271 262 268 284 332 341 351 356 355 353 354 348 343 340 339 333 329 325 321 318 315 316 313 310 305 296 280 262 261 262 268 252 249 245 221 216 214
333 311 328 322 324 315 315 329 320 309 300 297 276 241 257 274 326 344 358 359 357 354 350 349 347 343 341 335 330 326 320 318 317 314 313 311 309 303 290 267 255 256 259 255 243 236 233 238 221
333 332 333 334 324 321 320 323 320 304 298 285 258 224 239 229 302 334 347 348 346 349 344 343 341 341 340 338 334 326 321 316 311 309 310 311 310 310 299 275 252 251 251 254 247 227 227 221 237
336 336 331 330 322 323 319 330 319 333 309 263 241 222 220 195 279 324 342 338 337 340 339 341 342 339 334 333 331 326 319 313 310 309 308 309 308 309 304 280 252 245 246 247 246 231 222 224 232
339 334 328 329 323 321 326 340 43 351 27 53 347 249 201 220 292 321 334 330 328 331 335 345 344 339 334 329 325 321 316 312 309 307 307 307 307 305 303 281 254 240 239 243 242 234 224 222 234
334 333 330 328 328 323 327 337 46 19 360 9 347 223 216 277 317 327 327 324 324 325 324 331 335 334 328 321 318 320 319 315 313 308 305 305 304 303 299 279 257 237 235 235 238 232 225 217 220
332 332 333 323 325 323 348 149 16 342 339 351 342 263 285 324 334 326 318 320 321 321 323 328 331 329 328 328 328 325 321 319 317 315 310 307 305 302 297 281 259 238 232 231 232 230 224 219 215
339 335 330 321 322 315 335 280 301 332 288 341 182 280 336 340 335 326 322 319 324 322 326 329 328 329 329 328 328 326 323 319 319 317 318 309 304 300 296 288 264 245 231 228 227 227 221 220 218
333 334 324 312 309 320 346 303 245 269 256 149 158 260 317 339 345 332 318 329 331 332 330 329 329 330 330 330 328 326 324 321 317 314 311 311 306 303 294 289 273 249 235 226 223 223 220 220 217
337 335 318 312 311 326 174 333 271 220 217 194 208 216 258 346 343 326 329 328 328 325 326 329 329 333 331 328 326 324 323 320 316 313 306 301 294 293 294 287 276 258 240 231 221 221 220 220 220
340 347 327 347 345 225 281 303 238 206 203 221 239 233 281 339 335 329 326 326 324 323 326 327 329 330 326 322 321 320 318 316 312 309 305 299 291 286 284 282 274 261 248 235 227 219 219 218 220
336 0 357 252 273 281 276 242 222 213 222 229 238 243 314 322 329 325 324 325 326 324 325 326 325 325 323 322 319 317 315 310 308 303 301 298 291 287 283 277 271 263 251 241 232 220 216 217 216
328 324 305 257 275 304 248 263 242 232 241 243 241 260 295 307 319 317 320 322 324 323 324 326 328 330 328 324 322 318 315 311 308 302 298 296 291 287 286 279 268 265 257 243 235 223 218 216 216
315 313 296 251 334 292 264 263 251 247 250 246 247 276 293 309 310 312 318 321 321 322 326 328 329 329 327 324 321 318 315 311 305 301 298 295 290 285 287 281 272 261 260 246 235 226 218 218 215
304 308 242 258 253 201 290 241 282 288 246 234 271 288 307 311 311 315 318 319 320 321 324 325 329 327 324 322 320 318 315 310 304 300 297 293 289 284 286 282 275 258 253 248 236 227 220 218 216
308 306 253 261 259 240 272 278 288 259 247 267 271 298 303 304 311 320 320 320 320 320 323 330 330 328 326 323 320 316 313 309 305 301 300 295 291 289 287 282 278 263 242 241 239 227 222 217 217